This demonstration page uses our WeatherBlox Daily Observations layout. Learn more.

39.01783, -85.05884

Hourly Observations for June 4, 2019

Temp ( °F °C ) Dew Point ( °F °C ) Humidity (%) Winds ( mph kmh ) Pressure ( in mb ) Visibility ( mi km ) Precip ( " mm )
12:52 am 00:52 Cloudy 58 14.4 52 11.1 81 81 S 5 7 30.09 1019 10 16.09344 0 0
1:52 am 01:52 Mostly Cloudy 58 14.4 51 10.6 78 78 Calm 30.09 1019 10 16.09344 0 0
2:52 am 02:52 Partly Cloudy 56 13.3 51 10.6 84 84 S 3 6 30.09 1019 10 16.09344 0 0
3:52 am 03:52 Partly Cloudy 56 13.3 51 10.6 84 84 S 3 6 30.09 1019 10 16.09344 0 0
4:52 am 04:52 Mostly Clear 54 12.2 50 10 87 87 S 5 7 30.09 1019 10 16.09344 0 0
5:52 am 05:52 Mostly Cloudy 57 13.9 51 10.6 81 81 Calm 30.09 1019 10 16.09344 0 0
6:52 am 06:52 Mostly Cloudy 57 13.9 51 10.6 81 81 Calm 30.09 1019 10 16.09344 0 0
7:52 am 07:52 Mostly Cloudy 62 16.7 51 10.6 67 67 Calm 30.09 1019 10 16.09344 0 0
8:52 am 08:52 Partly Cloudy 65 18.3 52 11.1 63 63 S 6 9 30.09 1019 10 16.09344 0 0
9:52 am 09:52 Mostly Sunny 71 21.7 51 10.6 49 49 S 8 13 30.09 1019 10 16.09344 0 0
10:52 am 10:52 Mostly Sunny 73 22.8 52 11.1 48 48 S 8 13 30.06 1018 10 16.09344 0 0
11:52 am 11:52 Sunny 75 23.9 51 10.6 43 43 S 14 22 30.06 1018 10 16.09344 0 0
12:52 pm 12:52 Mostly Sunny 77 25 53 11.7 43 43 S 13 20 30.03 1017 10 16.09344 0 0
1:52 pm 13:52 Partly Cloudy 78 25.6 53 11.7 42 42 S 12 19 30.03 1017 10 16.09344 0 0
2:52 pm 14:52 Mostly Cloudy 79 26.1 54 12.2 42 42 S 10 17 30 1016 10 16.09344 0 0
3:52 pm 15:52 Mostly Cloudy 79 26.1 54 12.2 42 42 SSW 10 17 29.97 1015 10 16.09344 0 0
4:52 pm 16:52 Cloudy 79 26.1 53 11.7 41 41 S 12 19 29.94 1014 10 16.09344 0 0
5:52 pm 17:52 Cloudy 78 25.6 53 11.7 42 42 SSW 14 22 29.94 1014 10 16.09344 0 0
6:52 pm 18:52 Cloudy 77 25 54 12.2 45 45 S 10 17 29.91 1013 10 16.09344 0 0
7:52 pm 19:52 Mostly Cloudy 74 23.3 55 12.8 52 52 S 8 13 29.88 1012 10 16.09344 0 0
8:52 pm 20:52 Mostly Cloudy 72 22.2 54 12.2 53 53 S 5 7 29.88 1012 10 16.09344 0 0
9:52 pm 21:52 Mostly Cloudy 70 21.1 55 12.8 59 59 S 5 7 29.85 1011 10 16.09344 0 0
10:52 pm 22:52 Cloudy 70 21.1 55 12.8 59 59 S 8 13 29.88 1012 10 16.09344 0 0
11:52 pm 23:52 Cloudy 67 19.4 57 13.9 71 71 S 8 13 29.88 1012 10 16.09344 0 0

Powered by AerisWeather